Time,TemperatureF,DewpointF,PressureIn,WindDirection,WindDirectionDegrees,WindSpeedMPH,WindSpeedGustMPH,Humidity,HourlyPrecipIn,Conditions,Clouds,dailyrainin,SolarRadiationWatts/m^2,SoftwareType,DateUTC
2013-02-19 00:03:00,21.3,6.0,30.14,East,93,0.0,1.0,53,0.00,,,0.00,0,weatherlink.com 1.10,2013-02-19 07:03:00,
2013-02-19 00:18:00,20.6,7.0,30.14,East,93,0.0,1.0,55,0.00,,,0.00,0,weatherlink.com 1.10,2013-02-19 07:18:00,
2013-02-19 00:33:00,19.7,7.0,30.14,ENE,75,2.0,2.0,59,0.00,,,0.00,0,weatherlink.com 1.10,2013-02-19 07:33:00,
2013-02-19 00:48:00,19.5,6.0,30.15,ENE,74,2.0,3.0,57,0.00,,,0.00,0,weatherlink.com 1.10,2013-02-19 07:48:00,
2013-02-19 01:03:00,19.0,6.0,30.15,ENE,63,1.0,3.0,58,0.00,,,0.00,0,weatherlink.com 1.10,2013-02-19 08:03:00,
2013-02-19 01:18:00,19.3,6.0,30.14,NNW,333,3.0,4.0,56,0.00,,,0.00,0,weatherlink.com 1.10,2013-02-19 08:18:00,
2013-02-19 01:33:00,19.5,6.0,30.13,NW,319,2.0,5.0,56,0.00,,,0.00,0,weatherlink.com 1.10,2013-02-19 08:33:00,
2013-02-19 01:48:00,20.8,5.0,30.14,NW,325,2.0,6.0,51,0.00,,,0.00,0,weatherlink.com 1.10,2013-02-19 08:48:00,
2013-02-19 02:03:00,20.3,5.0,30.13,NW,320,3.0,4.0,52,0.00,,,0.00,0,weatherlink.com 1.10,2013-02-19 09:03:00,
2013-02-19 02:18:00,21.1,5.0,30.13,NW,311,2.0,5.0,50,0.00,,,0.00,0,weatherlink.com 1.10,2013-02-19 09:18:00,
2013-02-19 02:33:00,21.5,7.0,30.12,NW,325,1.0,3.0,54,0.00,,,0.00,0,weatherlink.com 1.10,2013-02-19 09:33:00,
2013-02-19 02:48:00,20.9,6.0,30.12,NW,324,0.0,2.0,52,0.00,,,0.00,0,weatherlink.com 1.10,2013-02-19 09:48:00,
2013-02-19 03:03:00,21.0,7.0,30.12,NW,324,1.0,2.0,54,0.00,,,0.00,0,weatherlink.com 1.10,2013-02-19 10:03:00,
2013-02-19 03:18:00,21.0,6.0,30.12,NW,324,0.0,3.0,53,0.00,,,0.00,0,weatherlink.com 1.10,2013-02-19 10:18:00,
2013-02-19 03:33:00,21.5,7.0,30.12,NW,324,0.0,2.0,53,0.00,,,0.00,0,weatherlink.com 1.10,2013-02-19 10:33:00,
2013-02-19 03:48:00,21.8,7.0,30.12,NW,324,0.0,1.0,52,0.00,,,0.00,0,weatherlink.com 1.10,2013-02-19 10:48:00,
2013-02-19 04:03:00,21.5,7.0,30.12,NW,324,0.0,0.0,53,0.00,,,0.00,0,weatherlink.com 1.10,2013-02-19 11:03:00,
2013-02-19 04:18:00,21.6,7.0,30.12,NW,324,0.0,0.0,53,0.00,,,0.00,0,weatherlink.com 1.10,2013-02-19 11:18:00,
2013-02-19 04:33:00,21.1,7.0,30.11,NW,324,0.0,0.0,55,0.00,,,0.00,0,weatherlink.com 1.10,2013-02-19 11:33:00,
2013-02-19 04:48:00,19.8,7.0,30.11,NW,324,0.0,0.0,58,0.00,,,0.00,0,weatherlink.com 1.10,2013-02-19 11:48:00,
2013-02-19 05:03:00,19.8,8.0,30.11,NW,324,0.0,0.0,60,0.00,,,0.00,0,weatherlink.com 1.10,2013-02-19 12:03:00,
2013-02-19 05:18:00,20.3,8.0,30.11,NW,324,0.0,0.0,60,0.00,,,0.00,0,weatherlink.com 1.10,2013-02-19 12:18:00,
2013-02-19 05:33:00,20.6,8.0,30.11,NW,324,0.0,0.0,59,0.00,,,0.00,0,weatherlink.com 1.10,2013-02-19 12:33:00,
2013-02-19 05:48:00,19.7,8.0,30.11,NW,324,0.0,0.0,60,0.00,,,0.00,0,weatherlink.com 1.10,2013-02-19 12:48:00,
2013-02-19 06:03:00,18.9,8.0,30.12,NW,324,0.0,0.0,63,0.00,,,0.00,0,weatherlink.com 1.10,2013-02-19 13:03:00,
2013-02-19 06:18:00,18.6,8.0,30.11,NW,324,0.0,1.0,63,0.00,,,0.00,0,weatherlink.com 1.10,2013-02-19 13:18:00,
2013-02-19 06:33:00,18.2,8.0,30.12,NW,324,0.0,0.0,64,0.00,,,0.00,0,weatherlink.com 1.10,2013-02-19 13:33:00,
2013-02-19 06:48:00,18.1,8.0,30.12,NW,324,0.0,0.0,65,0.00,,,0.00,0,weatherlink.com 1.10,2013-02-19 13:48:00,
2013-02-19 07:04:00,18.5,9.0,30.12,NW,324,0.0,2.0,66,0.00,,,0.00,14,weatherlink.com 1.10,2013-02-19 14:04:00,
2013-02-19 07:19:00,18.5,8.0,30.12,NW,324,0.0,0.0,65,0.00,,,0.00,28,weatherlink.com 1.10,2013-02-19 14:19:00,
2013-02-19 07:34:00,18.9,9.0,30.13,NW,324,0.0,2.0,65,0.00,,,0.00,44,weatherlink.com 1.10,2013-02-19 14:34:00,
2013-02-19 07:49:00,19.5,9.0,30.13,NW,324,0.0,1.0,65,0.00,,,0.00,76,weatherlink.com 1.10,2013-02-19 14:49:00,
2013-02-19 08:04:00,20.7,9.0,30.13,NW,324,0.0,1.0,62,0.00,,,0.00,113,weatherlink.com 1.10,2013-02-19 15:04:00,
2013-02-19 08:19:00,22.0,10.0,30.13,NW,324,0.0,0.0,61,0.00,,,0.00,190,weatherlink.com 1.10,2013-02-19 15:19:00,
2013-02-19 08:34:00,23.6,10.0,30.13,NW,314,0.0,1.0,56,0.00,,,0.00,179,weatherlink.com 1.10,2013-02-19 15:34:00,
2013-02-19 08:49:00,24.8,10.0,30.13,NW,324,1.0,1.0,53,0.00,,,0.00,225,weatherlink.com 1.10,2013-02-19 15:49:00,
2013-02-19 09:04:00,25.6,9.0,30.13,ENE,60,1.0,3.0,50,0.00,,,0.00,197,weatherlink.com 1.10,2013-02-19 16:04:00,
2013-02-19 09:19:00,26.3,9.0,30.13,SE,130,0.0,3.0,48,0.00,,,0.00,221,weatherlink.com 1.10,2013-02-19 16:19:00,
2013-02-19 09:34:00,27.7,8.0,30.12,ESE,118,0.0,1.0,44,0.00,,,0.00,274,weatherlink.com 1.10,2013-02-19 16:34:00,
2013-02-19 09:49:00,28.7,8.0,30.12,SE,130,0.0,2.0,41,0.00,,,0.00,279,weatherlink.com 1.10,2013-02-19 16:49:00,
2013-02-19 10:04:00,28.3,8.0,30.12,East,88,0.0,3.0,42,0.00,,,0.00,237,weatherlink.com 1.10,2013-02-19 17:04:00,
2013-02-19 10:19:00,28.6,9.0,30.11,NE,36,0.0,3.0,43,0.00,,,0.00,262,weatherlink.com 1.10,2013-02-19 17:19:00,
2013-02-19 10:34:00,29.7,9.0,30.10,NNE,30,0.0,3.0,42,0.00,,,0.00,302,weatherlink.com 1.10,2013-02-19 17:34:00,
2013-02-19 10:49:00,30.0,10.0,30.10,NNW,332,0.0,4.0,44,0.00,,,0.00,812,weatherlink.com 1.10,2013-02-19 17:49:00,
2013-02-19 11:04:00,32.6,10.0,30.09,NNE,14,1.0,3.0,39,0.00,,,0.00,700,weatherlink.com 1.10,2013-02-19 18:04:00,
2013-02-19 11:19:00,33.3,9.0,30.08,ESE,102,0.0,5.0,37,0.00,,,0.00,635,weatherlink.com 1.10,2013-02-19 18:19:00,
2013-02-19 11:34:00,35.2,9.0,30.07,East,99,1.0,5.0,34,0.00,,,0.00,656,weatherlink.com 1.10,2013-02-19 18:34:00,
2013-02-19 11:49:00,36.1,9.0,30.06,South,170,0.0,3.0,33,0.00,,,0.00,657,weatherlink.com 1.10,2013-02-19 18:49:00,
2013-02-19 12:04:00,36.5,9.0,30.05,SE,140,0.0,3.0,32,0.00,,,0.00,550,weatherlink.com 1.10,2013-02-19 19:04:00,
2013-02-19 12:20:00,36.2,10.0,30.04,NE,46,1.0,4.0,33,0.00,,,0.00,508,weatherlink.com 1.10,2013-02-19 19:20:00,
2013-02-19 12:35:00,37.6,9.0,30.03,ESE,114,0.0,4.0,31,0.00,,,0.00,691,weatherlink.com 1.10,2013-02-19 19:35:00,
2013-02-19 12:50:00,38.6,10.0,30.01,South,171,3.0,3.0,30,0.00,,,0.00,659,weatherlink.com 1.10,2013-02-19 19:50:00,
2013-02-19 13:05:00,40.3,9.0,30.00,SW,221,5.0,5.0,28,0.00,,,0.00,687,weatherlink.com 1.10,2013-02-19 20:05:00,
2013-02-19 13:20:00,40.5,9.0,29.99,SE,130,1.0,5.0,27,0.00,,,0.00,656,weatherlink.com 1.10,2013-02-19 20:20:00,
2013-02-19 13:35:00,40.3,7.0,29.98,SSE,148,1.0,4.0,25,0.00,,,0.00,617,weatherlink.com 1.10,2013-02-19 20:35:00,
2013-02-19 13:50:00,40.7,9.0,29.98,North,9,1.0,4.0,27,0.00,,,0.00,445,weatherlink.com 1.10,2013-02-19 20:50:00,
2013-02-19 14:05:00,38.7,8.0,29.97,North,11,0.0,7.0,28,0.00,,,0.00,244,weatherlink.com 1.10,2013-02-19 21:05:00,
2013-02-19 14:20:00,38.7,8.0,29.96,NNW,332,0.0,7.0,28,0.00,,,0.00,334,weatherlink.com 1.10,2013-02-19 21:20:00,
2013-02-19 14:35:00,40.7,8.0,29.96,NNE,27,2.0,3.0,26,0.00,,,0.00,301,weatherlink.com 1.10,2013-02-19 21:35:00,
2013-02-19 14:50:00,39.8,8.0,29.96,East,95,1.0,6.0,27,0.00,,,0.00,218,weatherlink.com 1.10,2013-02-19 21:50:00,
2013-02-19 15:05:00,39.7,9.0,29.95,North,5,2.0,6.0,28,0.00,,,0.00,545,weatherlink.com 1.10,2013-02-19 22:05:00,
2013-02-19 15:20:00,41.2,10.0,29.95,NNE,19,5.0,9.0,28,0.00,,,0.00,454,weatherlink.com 1.10,2013-02-19 22:20:00,
2013-02-19 15:35:00,40.5,10.0,29.95,NNE,23,4.0,10.0,29,0.00,,,0.00,352,weatherlink.com 1.10,2013-02-19 22:35:00,
2013-02-19 15:50:00,40.4,10.0,29.95,NNW,346,4.0,8.0,29,0.00,,,0.00,309,weatherlink.com 1.10,2013-02-19 22:50:00,
2013-02-19 16:05:00,39.6,10.0,29.95,NNE,17,5.0,8.0,29,0.00,,,0.00,116,weatherlink.com 1.10,2013-02-19 23:05:00,
2013-02-19 16:20:00,39.2,10.0,29.95,North,355,3.0,6.0,30,0.00,,,0.00,116,weatherlink.com 1.10,2013-02-19 23:20:00,
2013-02-19 16:35:00,39.5,11.0,29.95,NNE,17,3.0,6.0,31,0.00,,,0.00,246,weatherlink.com 1.10,2013-02-19 23:35:00,
2013-02-19 16:50:00,39.6,10.0,29.94,North,11,2.0,6.0,30,0.00,,,0.00,88,weatherlink.com 1.10,2013-02-19 23:50:00,
2013-02-19 17:05:00,38.9,10.0,29.94,North,360,2.0,5.0,31,0.00,,,0.00,42,weatherlink.com 1.10,2013-02-20 00:05:00,
2013-02-19 17:20:00,38.2,10.0,29.94,NNE,17,1.0,5.0,31,0.00,,,0.00,16,weatherlink.com 1.10,2013-02-20 00:20:00,
2013-02-19 17:35:00,37.7,10.0,29.94,NE,40,1.0,4.0,32,0.00,,,0.00,0,weatherlink.com 1.10,2013-02-20 00:35:00,
2013-02-19 17:50:00,37.2,10.0,29.95,North,360,2.0,4.0,33,0.00,,,0.00,0,weatherlink.com 1.10,2013-02-20 00:50:00,
2013-02-19 18:05:00,36.8,11.0,29.95,NNE,25,1.0,5.0,35,0.00,,,0.00,0,weatherlink.com 1.10,2013-02-20 01:05:00,
2013-02-19 18:35:00,35.2,11.0,29.95,North,355,0.0,3.0,37,0.00,,,0.00,0,weatherlink.com 1.10,2013-02-20 01:35:00,
2013-02-19 18:50:00,34.7,11.0,29.95,North,355,2.0,3.0,37,0.00,,,0.00,0,weatherlink.com 1.10,2013-02-20 01:50:00,
2013-02-19 19:05:00,34.3,11.0,29.95,North,351,2.0,3.0,38,0.00,,,0.00,0,weatherlink.com 1.10,2013-02-20 02:05:00,
2013-02-19 19:20:00,33.9,11.0,29.94,NNW,345,2.0,3.0,39,0.00,,,0.00,0,weatherlink.com 1.10,2013-02-20 02:20:00,
2013-02-19 19:35:00,33.6,12.0,29.94,NNW,345,0.0,1.0,40,0.00,,,0.00,0,weatherlink.com 1.10,2013-02-20 02:35:00,
2013-02-19 19:50:00,33.2,12.0,29.93,NNW,345,0.0,2.0,41,0.00,,,0.00,0,weatherlink.com 1.10,2013-02-20 02:50:00,
2013-02-19 20:05:00,32.8,11.0,29.93,NNW,345,0.0,3.0,41,0.00,,,0.00,0,weatherlink.com 1.10,2013-02-20 03:05:00,
2013-02-19 20:20:00,32.8,12.0,29.93,NNW,331,1.0,2.0,42,0.00,,,0.00,0,weatherlink.com 1.10,2013-02-20 03:20:00,
2013-02-19 20:35:00,32.7,12.0,29.93,NNW,331,0.0,1.0,42,0.00,,,0.00,0,weatherlink.com 1.10,2013-02-20 03:35:00,
2013-02-19 20:50:00,32.7,12.0,29.93,NNW,331,0.0,0.0,42,0.00,,,0.00,0,weatherlink.com 1.10,2013-02-20 03:50:00,
2013-02-19 21:05:00,32.0,12.0,29.92,NNW,331,0.0,0.0,43,0.00,,,0.00,0,weatherlink.com 1.10,2013-02-20 04:05:00,
2013-02-19 21:20:00,31.4,14.0,29.93,NNW,331,0.0,0.0,48,0.00,,,0.00,0,weatherlink.com 1.10,2013-02-20 04:20:00,
2013-02-19 21:35:00,31.2,12.0,29.92,NNW,331,2.0,2.0,46,0.00,,,0.00,0,weatherlink.com 1.10,2013-02-20 04:35:00,
2013-02-19 21:50:00,31.4,13.0,29.91,NW,315,1.0,2.0,47,0.00,,,0.00,0,weatherlink.com 1.10,2013-02-20 04:50:00,
2013-02-19 22:05:00,31.1,13.0,29.91,NW,321,1.0,4.0,47,0.00,,,0.00,0,weatherlink.com 1.10,2013-02-20 05:05:00,
2013-02-19 22:20:00,31.6,12.0,29.91,NW,321,1.0,4.0,44,0.00,,,0.00,0,weatherlink.com 1.10,2013-02-20 05:20:00,
2013-02-19 22:35:00,31.4,12.0,29.89,NNW,340,1.0,7.0,44,0.00,,,0.00,0,weatherlink.com 1.10,2013-02-20 05:35:00,
2013-02-19 22:50:00,30.9,12.0,29.89,NW,325,3.0,8.0,45,0.00,,,0.00,0,weatherlink.com 1.10,2013-02-20 05:50:00,
2013-02-19 23:05:00,29.9,12.0,29.88,NNW,346,7.0,10.0,48,0.00,,,0.00,0,weatherlink.com 1.10,2013-02-20 06:05:00,
2013-02-19 23:20:00,29.0,13.0,29.88,North,10,6.0,9.0,51,0.00,,,0.00,0,weatherlink.com 1.10,2013-02-20 06:20:00,
2013-02-19 23:35:00,27.7,14.0,29.88,NNW,346,6.0,11.0,56,0.00,,,0.00,0,weatherlink.com 1.10,2013-02-20 06:35:00,
2013-02-19 23:50:00,27.2,14.0,29.88,North,355,2.0,9.0,58,0.00,,,0.00,0,weatherlink.com 1.10,2013-02-20 06:50:00,